Tracking 19709 objects as of 20-Jun-2019
HD Live streaming from Space Station
objects crossing your sky now

FENGYUN 1C DEB

Track FENGYUN 1C DEB now!
10-day predictions


NORAD ID: 30348
Int'l Code: 1999-025ABK
Perigee: 827.4 km
Apogee: 857.6 km
Inclination: 99.0 °
Period: 101.6 minutes
Semi major axis: 7213 km
RCS: 0.044 m2 (small)
Launch date: May 10, 1999
Source: People's Republic of China (PRC)
Launch site: Taiyaun Space Center, China (TSC)

Note: This is SATELLITE DEBRIS
aabbcc
Your satellite tracking list
Your tracking list is empty




NASA's NSSDC Master Catalog

Two Line Element Set (TLE):
1 30348U 99025ABK 19170.10087468  .00000703  00000-0  37128-3 0  9999
2 30348  98.9789 207.2803 0020923 348.0711  79.9597 14.17039678638809
Source of the keplerian elements: AFSPC